LRCV Weather Reports


time (UTC)temp
C
wind
direction
speed
KPH
gust
KPH
rain 1hr
cm
rain 24hr
cm
rain mn
cm
humidity
%
barometer
mb
20260508043342 13 30 1.6 0.0 0.00 0.00 0.00 94 1016.0
20260508041840 11 30 3.2 0.0 0.00 0.00 0.00 94 1016.0
20260508040342 11 30 3.2 0.0 0.00 0.00 0.00 94 1016.0
20260508034839 11 350 3.2 0.0 0.00 0.00 0.00 100 1016.0
20260508033342 11 350 3.2 0.0 0.00 0.00 0.00 100 1016.0
20260508031842 12 1.6 0.0 0.00 0.00 0.00 94 1015.0
20260508030342 12 1.6 0.0 0.00 0.00 0.00 94 1015.0
20260508024842 12 10 3.2 0.0 0.00 0.00 0.00 100 1015.0
20260508023342 12 10 3.2 0.0 0.00 0.00 0.00 100 1015.0
20260508021842 12 10 3.2 0.0 0.00 0.00 0.00 94 1015.0
20260508020342 12 10 3.2 0.0 0.00 0.00 0.00 94 1015.0
20260508014838 12 10 3.2 0.0 0.00 0.00 0.00 100 1015.0
20260508013342 12 10 3.2 0.0 0.00 0.00 0.00 100 1015.0
20260508011841 12 10 8.0 0.0 0.00 0.00 0.00 94 1015.0
20260508010341 12 10 8.0 0.0 0.00 0.00 0.00 94 1015.0
20260508004842 13 330 3.2 0.0 0.00 0.00 0.00 88 1015.0
20260508003341 13 330 3.2 0.0 0.00 0.00 0.00 88 1015.0
20260508001837 13 330 3.2 0.0 0.00 0.00 0.00 94 1016.0
20260508000342 13 330 3.2 0.0 0.00 0.00 0.00 94 1016.0
20260507234839 15 330 4.8 0.0 0.00 0.00 0.00 88 1016.0
20260507233341 15 330 4.8 0.0 0.00 0.00 0.00 88 1016.0
20260507231841 15 290 3.2 0.0 0.00 0.00 0.00 94 1016.0
20260507230341 15 290 3.2 0.0 0.00 0.00 0.00 94 1016.0
20260507224841 15 290 4.8 0.0 0.00 0.00 0.00 94 1016.0
20260507223502 15 290 4.8 0.0 0.00 0.00 0.00 94 1016.0
20260507221838 15 0 0.0 0.0 0.00 0.00 0.00 88 1016.0
20260507220341 15 0 0.0 0.0 0.00 0.00 0.00 88 1016.0
20260507214841 15 230 1.6 0.0 0.00 0.00 0.00 94 1016.0
20260507213343 15 230 1.6 0.0 0.00 0.00 0.00 94 1016.0
20260507211842 15 360 8.0 0.0 0.00 0.00 0.00 94 1016.0
20260507210342 15 360 8.0 0.0 0.00 0.00 0.00 94 1016.0
20260507204841 16 150 1.6 0.0 0.00 0.00 0.00 88 1016.0
20260507203342 16 150 1.6 0.0 0.00 0.00 0.00 88 1016.0
20260507201842 16 3.2 0.0 0.00 0.00 0.00 94 1016.0
20260507200342 16 3.2 0.0 0.00 0.00 0.00 94 1016.0
20260507194847 17 190 4.8 0.0 0.00 0.00 0.00 88 1016.0
20260507193341 17 190 4.8 0.0 0.00 0.00 0.00 88 1016.0
20260507191841 17 0 0.0 0.0 0.00 0.00 0.00 78 1016.0
20260507190342 17 0 0.0 0.0 0.00 0.00 0.00 78 1016.0
20260507184843 17 0 0.0 0.0 0.00 0.00 0.00 78 1015.0
20260507183341 17 0 0.0 0.0 0.00 0.00 0.00 78 1015.0
20260507181841 17 220 3.2 0.0 0.00 0.00 0.00 78 1015.0
20260507180341 17 220 3.2 0.0 0.00 0.00 0.00 78 1015.0
20260507174841 18 200 4.8 0.0 0.00 0.00 0.00 73 1015.0
20260507173342 18 200 4.8 0.0 0.00 0.00 0.00 73 1015.0
20260507171842 20 0 0.0 0.0 0.00 0.00 0.00 64 1015.0
20260507170341 20 0 0.0 0.0 0.00 0.00 0.00 64 1015.0
20260507164842 20 0 0.0 0.0 0.00 0.00 0.00 69 1015.0
20260507163342 20 0 0.0 0.0 0.00 0.00 0.00 69 1015.0
20260507161841 20 0 0.0 0.0 0.00 0.00 0.00 69 1015.0
20260507160341 20 0 0.0 0.0 0.00 0.00 0.00 69 1015.0
20260507154842 20 3.2 0.0 0.00 0.00 0.00 69 1015.0
20260507153341 20 3.2 0.0 0.00 0.00 0.00 69 1015.0
20260507151841 20 30 3.2 0.0 0.00 0.00 0.00 69 1015.0
20260507150341 20 30 3.2 0.0 0.00 0.00 0.00 69 1015.0
20260507144841 20 360 3.2 0.0 0.00 0.00 0.00 64 1015.0
20260507143343 20 360 3.2 0.0 0.00 0.00 0.00 64 1015.0
20260507141841 21 10 3.2 0.0 0.00 0.00 0.00 60 1015.0
20260507140341 21 10 3.2 0.0 0.00 0.00 0.00 60 1015.0
20260507134842 21 360 4.8 0.0 0.00 0.00 0.00 57 1015.0
20260507133341 21 360 4.8 0.0 0.00 0.00 0.00 57 1015.0
20260507131838 21 340 8.0 0.0 0.00 0.00 0.00 57 1016.0
20260507130341 21 340 8.0 0.0 0.00 0.00 0.00 57 1016.0
20260507124838 20 330 9.7 0.0 0.00 0.00 0.00 60 1016.0
20260507123419 20 330 9.7 0.0 0.00 0.00 0.00 60 1016.0
20260507121841 21 320 11.3 0.0 0.00 0.00 0.00 57 1016.0
20260507120341 21 320 11.3 0.0 0.00 0.00 0.00 57 1016.0
20260507114841 21 330 11.3 0.0 0.00 0.00 0.00 57 1016.0
20260507113401 21 330 9.7 0.0 0.00 0.00 0.00 53 1016.0
20260507111841 21 330 9.7 0.0 0.00 0.00 0.00 53 1016.0
20260507110341 21 330 9.7 0.0 0.00 0.00 0.00 53 1016.0
20260507104841 21 280 11.3 0.0 0.00 0.00 0.00 53 1016.0
20260507103341 21 280 11.3 0.0 0.00 0.00 0.00 53 1016.0
20260507101841 21 260 3.2 0.0 0.00 0.00 0.00 60 1016.0
20260507100342 21 260 3.2 0.0 0.00 0.00 0.00 60 1016.0
20260507094842 20 3.2 0.0 0.00 0.00 0.00 60 1016.0
20260507093342 20 3.2 0.0 0.00 0.00 0.00 60 1016.0
20260507091843 20 3.2 0.0 0.00 0.00 0.00 56 1016.0
20260507090341 20 3.2 0.0 0.00 0.00 0.00 56 1016.0
20260507084841 18 150 8.0 0.0 0.00 0.00 0.00 60 1016.0
20260507083342 18 150 8.0 0.0 0.00 0.00 0.00 60 1016.0
20260507081841 17 120 9.7 0.0 0.00 0.00 0.00 64 1016.0
20260507080342 17 120 9.7 0.0 0.00 0.00 0.00 64 1016.0
20260507074842 17 130 9.7 0.0 0.00 0.00 0.00 64 1016.0
20260507073341 17 130 9.7 0.0 0.00 0.00 0.00 64 1016.0
20260507071842 17 100 12.9 0.0 0.00 0.00 0.00 64 1016.0
20260507070341 17 100 12.9 0.0 0.00 0.00 0.00 64 1016.0
20260507064841 16 110 16.1 0.0 0.00 0.00 0.00 59 1016.0
20260507063341 16 110 16.1 0.0 0.00 0.00 0.00 59 1016.0
20260507061851 16 100 17.7 0.0 0.00 0.00 0.00 63 1016.0
20260507060341 16 100 17.7 0.0 0.00 0.00 0.00 63 1016.0
20260507054841 13 110 14.5 0.0 0.00 0.00 0.00 67 1015.0
20260507053349 13 110 14.5 0.0 0.00 0.00 0.00 67 1015.0
20260507051842 13 90 11.3 0.0 0.00 0.00 0.00 67 1016.0
20260507050341 13 90 11.3 0.0 0.00 0.00 0.00 67 1016.0
20260507044838 12 90 16.1 0.0 0.00 0.00 0.00 72 1015.0